Location: Kott?ru
(16.6209°N, 80.6208°E)
Time: 00:03:46
(UTC+00:00)

SEEDS - Visible Passes

Search period start: 07 June 2023 00:00
Search period end: 17 June 2023 00:00
Orbit: 568 x 587 km, 97.7° (Epoch: 06 June)

Date Brightness Start Highest point End Pass type
(mag) Time Alt. Az. Time Alt. Az. Time Alt. Az.
07 Jun ? 22:33:09 10° N 22:37:08 56° WNW 22:37:57 46° WSW visible
08 Jun ? 22:37:19 10° N 22:41:14 48° WNW 22:42:08 40° WSW visible
09 Jun ? 22:41:29 10° N 22:45:20 42° WNW 22:46:17 35° WSW visible
10 Jun ? 22:45:40 10° N 22:49:25 36° WNW 22:50:26 31° WSW visible
11 Jun ? 22:49:51 10° NNW 22:53:29 32° WNW 22:54:33 27° WSW visible
12 Jun ? 21:21:03 10° ENE 21:22:24 11° E 21:22:24 11° E visible
12 Jun ? 22:54:03 10° NNW 22:57:32 28° WNW 22:58:40 24° WSW visible
13 Jun ? 21:24:31 10° ENE 21:26:29 13° E 21:26:30 13° E visible
13 Jun ? 22:58:15 10° NNW 23:01:35 25° WNW 23:02:46 21° WSW visible
14 Jun ? 21:28:10 10° ENE 21:30:33 15° E 21:30:36 15° E visible
14 Jun ? 23:02:28 10° NNW 23:05:37 22° WNW 23:06:52 19° W visible
15 Jun ? 21:31:52 10° ENE 21:34:36 17° E 21:34:41 17° E visible
15 Jun ? 23:06:43 10° NNW 23:09:39 19° WNW 23:10:58 17° W visible
16 Jun ? 21:35:39 10° NE 21:38:39 20° E 21:38:45 20° E visible
16 Jun ? 23:11:00 10° NW 23:13:39 17° WNW 23:15:01 15° W visible
